Clarksville, TX

6:04 PM CDT on October 01, 2016 (GMT -0500)
Clarksville

Weather History for KLBR - February, 2013

Change the Weather History Date:

Wednesday, February 6, 2013

  Actual Average (KPRX) Record (KPRX)
Temperature  
Mean Temperature 54 °F -  
Max Temperature 57 °F 53 °F 71 °F (2009)
Min Temperature 50 °F 35 °F 17 °F (2014)
Degree Days  
Heating Degree Days 12    
Growing Degree Days 4 (Base 50)    
Moisture  
Dew Point 52 °F    
Average Humidity 95    
Maximum Humidity 100    
Minimum Humidity 88    
Precipitation  
Precipitation 0.07 in - - ()
Sea Level Pressure  
Sea Level Pressure 30.03 in    
Wind  
Wind Speed 4 mph (East)    
Max Wind Speed 12 mph    
Max Gust Speed 16 mph    
Visibility 3 miles    
Events      
Averages and records for this station are not official NWS values.
T = Trace of Precipitation, MM = Missing Value Source: NWS Daily Summary

Daily Weather History Graph

Daily Weather History Graph

Search for Another Location

Airport or City:

Trip Planner

Search our weather history database for the weather conditions in past years. The results will help you decide how hot, cold, wet, or windy it might be!

Date:

Astronomy

Feb. 06, 2013 Rise Set
Actual Time 7:12 AM CST 5:56 PM CST
Civil Twilight 6:46 AM CST 6:22 PM CST
Nautical Twilight 6:17 AM CST 6:52 PM CST
Astronomical Twilight 5:48 AM CST 7:21 PM CST
Moon 3:51 AM CST (2/6) 2:21 PM CST (2/6)
Length of Visible Light 11h 35m
Length of Day
10h 44m
Waning Crescent, 17% of the Moon is Illuminated
Feb 6
Waning Crescent
Feb 10
New
Feb 17
First Quarter
Feb 25
Full
Mar 4
Last Quarter

Hourly Weather History & Observations

Time (CST) Temp. Dew Point Humidity Pressure Visibility Wind Dir Wind Speed Gust Speed Precip Events Conditions
12:15 AM 53.6 °F 51.8 °F 94% 30.04 in 3.0 mi Calm Calm - N/A   Unknown
12:35 AM 53.6 °F 51.8 °F 94% 30.04 in 2.5 mi NE 3.5 mph - N/A   Overcast
1:15 AM 53.6 °F 51.8 °F 94% 30.05 in 2.5 mi Calm Calm - N/A   Overcast
1:35 AM 51.8 °F 51.8 °F 100% 30.05 in 1.5 mi Calm Calm - N/A   Scattered Clouds
2:15 AM 51.8 °F 51.8 °F 100% 30.04 in 0.5 mi Calm Calm - N/A   Overcast
2:35 AM 51.8 °F 51.8 °F 100% 30.04 in 0.5 mi NE 3.5 mph - N/A   Overcast
2:55 AM 51.8 °F 50.0 °F 94% 30.03 in 1.0 mi ENE 4.6 mph - N/A   Mostly Cloudy
3:15 AM 51.8 °F 50.0 °F 94% 30.02 in 3.0 mi ENE 3.5 mph - N/A   Unknown
3:35 AM 51.8 °F 50.0 °F 94% 30.04 in 3.0 mi Calm Calm - N/A   Clear
3:55 AM 50.0 °F 50.0 °F 100% 30.04 in 1.8 mi Calm Calm - N/A   Unknown
4:15 AM 51.8 °F 50.0 °F 94% 30.04 in 4.0 mi ENE 4.6 mph - N/A   Mostly Cloudy
4:35 AM 50.0 °F 50.0 °F 100% 30.05 in 3.0 mi Calm Calm - N/A   Mostly Cloudy
4:55 AM 50.0 °F 50.0 °F 100% 30.05 in 3.0 mi ENE 4.6 mph - N/A   Overcast
5:15 AM 50.0 °F 48.2 °F 94% 30.05 in 2.5 mi East 3.5 mph - N/A   Unknown
5:35 AM 50.0 °F 48.2 °F 94% 30.05 in 2.5 mi ENE 4.6 mph - N/A   Unknown
5:55 AM 50.0 °F 48.2 °F 94% 30.04 in 3.0 mi NE 5.8 mph - N/A   Unknown
6:15 AM 50.0 °F 48.2 °F 94% 30.05 in 4.0 mi NNE 4.6 mph - N/A   Clear
6:35 AM 50.0 °F 48.2 °F 94% 30.06 in 4.0 mi Calm Calm - N/A   Scattered Clouds
6:55 AM 50.0 °F 48.2 °F 94% 30.07 in 4.0 mi ENE 3.5 mph - N/A   Overcast
7:35 AM 50.0 °F 48.2 °F 94% 30.08 in 0.5 mi ENE 4.6 mph - N/A   Overcast
7:55 AM 50.0 °F 50.0 °F 100% 30.07 in 0.2 mi East 5.8 mph - N/A   Overcast
8:15 AM 51.8 °F 50.0 °F 94% 30.08 in 0.2 mi East 4.6 mph - N/A   Overcast
9:15 AM 51.8 °F 51.8 °F 100% 30.08 in 0.2 mi Calm Calm - N/A   Overcast
9:35 AM 53.6 °F 51.8 °F 94% 30.09 in 0.5 mi East 4.6 mph - N/A   Overcast
9:55 AM 53.6 °F 53.6 °F 100% 30.09 in 0.5 mi East 3.5 mph - N/A   Overcast
10:15 AM 55.4 °F 55.4 °F 100% 30.09 in 2.0 mi East 5.8 mph - N/A   Overcast
10:35 AM 55.4 °F 55.4 °F 100% 30.08 in 5.0 mi East 8.1 mph - N/A   Mostly Cloudy
10:55 AM 55.4 °F 55.4 °F 100% 30.08 in 5.0 mi East 6.9 mph - N/A   Scattered Clouds
11:15 AM 57.2 °F 53.6 °F 88% 30.08 in 7.0 mi East 8.1 mph - N/A   Scattered Clouds
11:35 AM 57.2 °F 53.6 °F 88% 30.07 in 5.0 mi East 6.9 mph - N/A   Scattered Clouds
11:55 AM 57.2 °F 53.6 °F 88% 30.07 in 5.0 mi East 8.1 mph - N/A   Mostly Cloudy
12:15 PM 57.2 °F 53.6 °F 88% 30.08 in 4.0 mi ESE 3.5 mph - 0.01 in   Overcast
12:35 PM 55.4 °F 53.6 °F 94% 30.06 in 3.0 mi East 6.9 mph - 0.02 in   Overcast
12:55 PM 55.4 °F 53.6 °F 94% 30.05 in 5.0 mi ESE 11.5 mph 16.1 mph 0.03 in   Overcast
1:15 PM 55.4 °F 51.8 °F 88% 30.04 in 5.0 mi East 8.1 mph - 0.02 in   Overcast
1:35 PM 53.6 °F 51.8 °F 94% 30.03 in 4.0 mi East 8.1 mph - 0.03 in   Overcast
1:55 PM 53.6 °F 51.8 °F 94% 30.03 in 5.0 mi ENE 5.8 mph - 0.04 in   Overcast
2:15 PM 55.4 °F 51.8 °F 88% 30.02 in 5.0 mi East 8.1 mph - N/A   Overcast
2:35 PM 55.4 °F 51.8 °F 88% 30.01 in 7.0 mi East 9.2 mph - N/A   Mostly Cloudy
2:55 PM 55.4 °F 51.8 °F 88% 30.00 in 3.0 mi ENE 6.9 mph - N/A   Overcast
3:15 PM 53.6 °F 51.8 °F 94% 29.99 in 3.0 mi NE 8.1 mph - N/A   Overcast
3:35 PM 53.6 °F 51.8 °F 94% 29.99 in 3.0 mi ENE 8.1 mph - N/A   Overcast
3:55 PM 53.6 °F 51.8 °F 94% 29.98 in 4.0 mi ENE 8.1 mph - N/A   Overcast
4:15 PM 53.6 °F 51.8 °F 94% 29.98 in 4.0 mi ENE 9.2 mph - N/A   Overcast
4:35 PM 53.6 °F 51.8 °F 94% 29.98 in 4.0 mi ENE 9.2 mph 16.1 mph N/A   Overcast
4:55 PM 53.6 °F 51.8 °F 94% 29.98 in 4.0 mi East 5.8 mph - N/A   Overcast
5:15 PM 53.6 °F 51.8 °F 94% 29.98 in 4.0 mi East 8.1 mph - N/A   Overcast
5:35 PM 53.6 °F 51.8 °F 94% 29.98 in 4.0 mi ENE 6.9 mph - N/A   Overcast
5:55 PM 53.6 °F 51.8 °F 94% 29.98 in 5.0 mi East 6.9 mph - N/A   Overcast
6:15 PM 53.6 °F 51.8 °F 94% 29.97 in 5.0 mi East 8.1 mph - N/A   Overcast
6:35 PM 53.6 °F 51.8 °F 94% 29.98 in 5.0 mi ENE 5.8 mph - N/A   Overcast
6:55 PM 53.6 °F 51.8 °F 94% 29.98 in 5.0 mi East 5.8 mph - N/A   Overcast
7:15 PM 53.6 °F 51.8 °F 94% 29.98 in 7.0 mi East 4.6 mph - N/A   Overcast
7:35 PM 53.6 °F 51.8 °F 94% 29.98 in 7.0 mi East 5.8 mph - N/A   Overcast
7:55 PM 53.6 °F 51.8 °F 94% 29.99 in 7.0 mi East 4.6 mph - N/A   Overcast
8:15 PM 53.6 °F 51.8 °F 94% 29.99 in 7.0 mi East 5.8 mph - N/A   Overcast
8:35 PM 53.6 °F 51.8 °F 94% 29.99 in 7.0 mi East 5.8 mph - N/A   Overcast
8:55 PM 53.6 °F 51.8 °F 94% 29.99 in 7.0 mi East 5.8 mph - N/A   Overcast
9:15 PM 53.6 °F 51.8 °F 94% 29.99 in 4.0 mi East 6.9 mph - N/A   Overcast
9:35 PM 53.6 °F 51.8 °F 94% 29.99 in 2.5 mi East 6.9 mph - N/A   Overcast
9:55 PM 53.6 °F 51.8 °F 94% 29.99 in 2.0 mi East 5.8 mph - N/A   Overcast
10:15 PM 53.6 °F 53.6 °F 100% 29.99 in 1.5 mi East 4.6 mph - N/A   Overcast
10:35 PM 53.6 °F 53.6 °F 100% 29.99 in 1.2 mi East 4.6 mph - N/A   Overcast
10:55 PM 53.6 °F 53.6 °F 100% 29.98 in 1.0 mi East 5.8 mph - N/A   Overcast
11:15 PM 53.6 °F 53.6 °F 100% 29.98 in 0.8 mi East 5.8 mph - N/A   Overcast
11:35 PM 53.6 °F 53.6 °F 100% 29.98 in 0.8 mi East 5.8 mph - N/A   Overcast
11:55 PM 53.6 °F 53.6 °F 100% 29.97 in 0.8 mi East 5.8 mph - N/A   Overcast